Temperature
21 19 18 19 20 20 20 20 20 20 20 20 19 19 19 19 20 19 19 19 19 19 19 19 19 19 19 19 18 18 18 18 18 17 17 17 17 17 17 17 16 16 16 16
19 19 21 21 21 21 20 20 19 20 20 20 19 19 19 19 19 20 19 19 19 19 19 19 19 19 19 19 18 18 18 18 18 17 17 17 17 17 16 16 16 16 16 16
20 21 22 22 21 21 20 20 19 20 20 19 19 18 18 19 19 19 19 19 19 19 19 19 19 19 19 18 18 18 18 18 17 17 17 17 17 16 16 16 16 16 16 16
21 21 22 21 21 21 20 21 21 20 19 17 18 17 18 18 18 18 19 19 19 19 19 19 19 19 19 18 18 18 18 17 17 17 17 17 17 16 16 16 16 16 16 16
20 22 22 21 22 21 20 21 21 20 19 18 18 17 17 17 18 18 18 19 19 19 19 19 19 19 19 18 18 18 18 17 17 17 17 17 17 16 16 16 16 16 16 16
21 22 22 22 22 22 21 20 19 18 17 17 18 17 17 17 18 18 18 19 19 19 19 19 19 19 19 18 18 18 18 17 17 17 17 16 16 16 16 16 16 16 16 16
20 21 22 22 21 21 20 18 17 17 16 17 18 18 17 18 18 19 18 19 19 19 19 19 18 19 18 18 18 18 17 17 17 17 16 16 16 16 16 16 16 16 16 15
19 19 21 22 21 20 20 18 17 17 17 17 18 18 18 19 20 20 20 19 19 19 19 18 18 18 18 18 18 18 17 17 17 17 16 16 16 16 16 16 16 15 15 15
19 19 21 22 22 21 20 18 18 17 17 17 17 18 19 19 18 19 19 18 18 18 18 18 18 18 18 18 18 17 17 17 17 17 16 16 16 16 15 15 15 15 15 15
20 19 20 21 21 21 20 19 16 17 17 17 18 18 17 18 18 18 18 18 18 18 18 18 18 18 18 18 18 17 17 17 17 16 16 16 16 15 15 15 15 15 15 15
19 18 19 19 20 20 20 19 17 16 16 16 16 17 18 17 18 17 18 18 18 18 18 18 18 18 17 17 17 17 17 17 17 16 16 16 15 15 15 15 15 15 15 14
18 16 17 18 20 20 20 19 17 17 17 16 15 16 19 18 18 18 18 18 18 18 18 18 18 17 17 17 17 17 17 16 16 16 16 16 15 15 15 15 15 15 14 14
18 16 16 17 18 19 19 19 18 16 15 15 15 17 18 18 18 18 18 18 18 18 18 18 17 17 17 17 17 16 16 16 16 16 16 15 15 15 15 15 15 14 14 14
18 16 16 17 17 18 18 19 19 17 15 16 16 17 18 17 17 18 18 18 18 18 17 17 17 17 17 16 16 16 16 16 16 16 15 15 15 15 15 15 14 14 14 14
17 16 17 17 18 18 19 19 19 18 17 16 17 17 17 17 17 18 18 18 17 17 17 17 17 17 16 16 16 16 16 16 15 15 15 15 15 15 15 14 14 14 14 14
16 17 17 17 18 18 18 19 19 19 18 17 17 17 17 18 18 18 18 17 17 17 17 17 17 16 16 16 16 16 15 15 15 15 15 15 15 15 14 14 14 14 14 14
15 16 16 16 17 17 17 18 18 18 18 18 17 17 17 16 17 17 17 17 17 17 17 17 17 16 16 16 16 15 15 15 15 15 14 14 14 14 14 14 14 14 13 13
16 15 14 15 16 17 17 18 18 18 18 17 17 17 17 17 17 18 18 17 17 17 17 17 17 16 16 16 15 15 15 15 15 14 14 14 14 14 14 14 14 13 13 13
15 15 14 14 15 16 17 18 18 18 17 17 17 17 17 17 17 16 17 17 17 17 17 17 17 16 16 16 15 15 15 15 14 14 14 14 14 14 14 14 13 13 13 13
15 14 14 14 15 16 16 18 19 18 16 17 17 16 16 16 14 15 17 17 17 17 17 16 16 16 16 15 15 15 15 14 14 14 14 13 13 13 13 13 13 13 13 12
15 14 14 14 14 15 16 18 18 16 16 17 18 17 17 16 16 17 17 17 17 16 16 16 16 15 15 15 14 14 14 14 14 13 13 13 13 13 13 13 12 12 12 12
14 14 13 13 13 14 17 17 16 16 17 18 18 18 17 17 17 17 17 16 16 16 16 15 15 15 15 14 14 14 14 14 13 13 13 13 12 12 12 12 12 12 12 12
13 13 13 13 14 15 17 17 18 18 17 17 17 17 17 17 16 16 16 16 16 15 15 15 15 14 14 14 14 14 13 13 13 13 12 12 12 12 12 11 11 11 11 11
13 14 13 13 14 15 17 17 17 17 17 17 17 17 17 17 16 16 16 15 15 15 15 14 14 14 14 14 13 13 13 13 13 12 12 12 12 11 11 11 11 11 11 11
13 13 12 12 13 15 16 16 16 16 16 16 16 16 16 16 16 16 15 15 15 14 14 14 14 14 13 13 13 13 13 12 12 12 12 11 11 11 11 11 11 10 10 10
12 12 12 12 14 13 14 15 16 15 15 16 16 15 15 15 15 15 15 14 14 14 14 13 13 13 13 13 13 12 12 12 12 12 11 11 11 11 10 10 10 10 10 10
Wind_Speed
2 4 1 5 6 5 4 3 2 1 1 2 2 3 3 3 4 5 5 5 6 6 4 4 4 5 5 5 6 5 6 4 4 3 2 2 2 1 2 2 4 5 5 6
4 1 4 3 2 4 4 4 1 1 1 2 1 2 3 4 5 6 7 7 7 5 3 3 4 4 5 5 5 5 5 5 4 3 2 2 2 1 1 2 4 5 5 5
3 4 1 3 2 3 1 3 3 2 1 2 3 2 3 3 2 3 5 6 7 8 7 6 5 4 5 5 6 6 6 5 4 4 4 4 4 3 3 3 2 3 5 5
1 2 2 1 2 3 2 3 5 4 3 2 2 1 5 4 2 3 4 5 6 7 6 6 6 5 5 6 6 5 5 5 4 5 5 5 4 3 1 1 1 2 4 5
2 1 2 1 2 3 4 3 3 3 3 0 1 3 5 3 5 6 6 7 7 7 8 8 7 7 5 5 6 5 5 4 4 5 6 5 4 3 2 2 3 2 2 4
2 2 2 3 1 2 2 3 3 4 3 1 4 4 5 5 7 6 6 7 7 7 8 7 6 5 4 4 5 5 6 4 4 5 5 6 6 5 4 3 3 2 2 2
3 3 1 1 3 3 4 5 3 3 2 4 3 3 6 6 6 8 8 8 7 7 7 7 5 5 5 5 5 6 6 5 4 5 5 6 6 6 5 4 3 3 2 1
0 4 3 1 3 3 2 6 5 3 3 3 1 3 5 3 3 5 6 6 6 6 6 6 6 6 5 6 6 6 6 5 4 5 5 5 6 5 4 4 3 3 2 2
3 4 3 2 1 5 2 2 5 4 1 1 3 2 4 3 3 4 5 6 6 7 7 7 6 5 5 6 6 7 7 5 5 5 5 5 5 4 4 4 3 2 2 2
5 2 3 3 2 1 4 5 4 3 2 1 3 3 3 3 3 3 4 5 6 6 6 6 6 6 5 6 5 6 6 6 5 5 5 5 5 5 5 4 4 3 3 2
4 3 3 2 2 4 1 1 3 3 4 4 2 5 4 7 7 6 5 5 6 7 7 7 6 5 5 4 4 5 4 4 4 4 4 4 4 5 4 4 4 4 3 3
2 4 1 5 5 3 4 4 5 3 2 3 3 5 4 6 6 6 5 4 4 6 6 6 6 5 4 4 4 4 4 4 4 4 4 4 4 4 4 4 4 3 3 3
4 5 2 6 5 4 1 1 3 4 3 3 3 5 3 2 3 4 6 5 4 5 5 5 5 6 5 5 4 4 3 3 3 4 4 4 4 4 4 4 4 4 4 3
4 4 5 6 5 2 3 3 2 4 3 3 5 5 4 3 4 4 4 5 5 6 6 6 6 5 5 5 4 4 3 3 3 4 4 4 4 4 5 4 4 4 4 4
4 2 4 5 4 2 3 5 4 5 6 6 6 6 8 7 8 7 6 5 5 5 6 6 6 5 5 4 4 3 3 3 3 3 3 3 3 3 3 3 3 3 4 4
3 2 1 3 3 2 4 6 6 6 6 6 5 6 5 4 4 4 6 6 5 5 6 6 6 6 6 6 5 4 3 3 3 3 3 2 2 2 2 3 3 3 3 3
1 3 1 3 4 3 4 6 5 4 4 5 6 6 2 2 3 6 7 8 7 7 6 6 6 6 6 6 7 6 4 3 3 3 2 2 3 3 2 2 3 3 3 3
5 4 3 1 2 3 7 4 2 3 2 2 2 2 4 5 5 4 5 7 7 6 6 6 5 5 4 4 4 4 3 4 3 3 2 2 3 3 2 2 2 3 3 3
6 6 3 2 2 5 5 3 1 2 2 1 1 1 2 2 4 1 2 5 6 6 5 5 5 5 4 4 5 5 4 4 3 3 3 3 3 3 3 3 3 2 2 3
4 5 4 3 3 5 6 5 2 3 2 4 2 3 2 4 2 4 3 3 3 3 3 4 4 3 4 4 4 5 4 4 4 4 4 4 3 4 5 5 4 2 3 3
2 2 3 4 5 6 6 4 3 3 6 4 2 3 4 4 6 5 3 3 3 4 3 4 4 4 4 4 5 4 4 5 5 4 3 3 4 4 4 4 3 3 3 3
5 3 4 4 4 7 4 1 3 6 3 2 2 3 4 3 2 3 4 4 4 3 3 3 3 2 3 4 5 5 5 6 4 3 3 4 3 3 3 3 3 3 3 3
4 6 5 6 6 5 2 3 3 3 2 2 2 2 4 3 2 3 4 4 4 4 3 3 3 2 2 3 5 6 6 4 3 3 3 4 3 3 3 4 4 3 3 4
3 1 2 2 3 3 2 2 2 0 1 2 2 3 4 3 3 3 4 4 3 3 3 3 3 3 2 3 4 5 4 4 4 4 4 3 3 3 3 3 4 4 5 5
5 1 0 3 4 3 4 3 2 2 2 2 1 2 4 4 3 4 4 4 4 4 3 3 4 4 4 3 3 3 4 4 4 4 4 3 3 3 3 3 4 5 6 6
4 4 4 6 6 4 6 6 4 3 3 3 2 2 2 3 4 4 4 4 4 4 3 3 4 4 4 3 3 3 3 4 5 3 3 3 3 2 2 3 2 4 4 5
Wind_Direction
19 74 203 220 202 179 157 142 145 225 185 106 138 189 214 200 156 159 165 164 166 180 192 171 155 153 144 138 132 137 134 133 119 102 95 97 95 90 83 89 100 114 120 122
44 307 239 192 166 125 123 120 92 18 141 112 149 238 241 205 191 175 172 176 181 179 153 152 145 143 148 150 142 145 151 148 140 136 134 129 122 106 96 80 72 93 108 123
175 235 193 129 131 116 119 163 179 184 35 43 94 337 284 262 214 171 175 176 181 181 172 168 162 155 150 157 161 161 159 157 153 136 108 86 70 55 49 50 46 64 99 111
265 264 134 132 180 154 210 216 174 170 137 239 157 222 267 246 225 202 187 181 187 182 170 166 165 161 163 170 163 156 155 151 145 133 127 128 125 127 165 141 97 72 91 106
265 226 125 178 221 163 201 206 168 172 152 355 223 173 271 228 216 223 205 189 187 180 171 171 173 175 173 166 156 154 149 146 142 137 138 135 127 137 130 105 91 74 71 93
254 256 183 201 219 142 144 61 34 47 81 290 230 178 262 224 212 209 206 195 187 174 170 171 170 159 158 151 144 147 146 148 147 141 139 140 140 136 125 119 113 97 75 67
338 338 338 106 64 15 72 88 40 5 6 258 229 185 250 239 206 192 191 192 186 171 167 161 152 155 156 150 148 148 148 153 155 146 146 149 148 145 148 151 146 135 113 100
132 285 264 218 173 192 190 141 158 196 225 283 317 231 267 271 193 170 161 161 162 160 165 167 170 163 159 160 156 152 155 159 155 154 158 154 151 148 153 155 147 155 163 176
170 254 275 249 198 148 152 179 176 150 193 271 283 286 329 21 102 133 145 147 163 170 169 168 168 163 160 160 163 163 161 161 162 165 160 153 152 150 158 159 144 152 169 162
146 226 285 292 32 15 159 153 99 119 162 242 280 262 236 221 191 169 166 170 177 175 169 170 172 172 170 165 158 158 162 166 164 159 163 160 162 166 163 151 153 163 173 152
101 135 309 346 219 228 159 121 123 133 157 161 233 268 226 193 191 182 186 180 177 175 171 173 176 176 167 156 153 152 155 154 159 164 163 159 164 165 157 158 176 175 163 159
91 115 254 266 267 216 177 175 147 153 220 170 178 259 268 175 174 169 171 178 174 172 168 166 163 153 149 152 152 157 160 162 174 169 157 162 165 154 156 169 179 163 154 157
104 104 56 341 339 359 26 174 148 140 131 163 178 257 305 159 160 171 169 178 176 166 159 156 154 159 160 158 155 156 159 168 171 154 148 149 155 159 168 177 171 158 155 158
107 117 167 200 223 252 286 281 188 137 160 202 213 234 272 231 205 207 192 182 172 169 163 164 167 169 166 163 163 162 168 160 152 149 151 161 173 181 183 181 170 165 160 156
99 157 222 234 236 224 252 259 229 201 196 199 222 222 238 218 204 203 195 177 165 163 166 171 175 177 171 165 166 172 175 161 151 152 164 189 194 179 176 176 174 169 166 169
92 165 270 295 274 280 278 268 241 226 216 217 230 252 247 211 183 189 188 173 171 173 176 179 174 175 181 177 172 174 174 168 153 154 178 194 176 165 172 182 173 163 166 162
140 142 140 270 296 355 278 249 222 210 216 196 220 240 187 145 177 191 188 183 181 182 181 179 182 185 189 188 179 181 180 159 144 159 178 183 180 180 190 182 160 169 175 166
159 142 154 234 13 244 248 264 185 178 235 221 214 214 176 185 196 194 178 177 186 187 184 187 187 185 185 180 180 176 159 156 161 168 183 186 182 187 187 159 173 191 178 177
164 148 147 154 221 272 290 300 200 166 288 296 175 181 174 118 73 9 212 176 182 190 189 187 186 181 175 173 171 156 159 166 169 186 201 202 191 197 196 197 201 196 182 191
104 117 138 157 191 236 249 278 299 100 266 296 167 167 152 108 116 252 245 191 169 159 156 157 155 145 156 177 155 151 169 174 195 205 209 205 198 200 208 214 212 206 197 204
82 88 163 190 217 257 262 286 54 140 236 269 205 181 163 181 209 220 203 182 164 153 144 141 143 158 184 177 155 163 183 204 210 207 208 207 207 213 219 215 211 205 200 199
183 185 198 171 197 249 275 87 171 218 230 214 195 181 178 196 197 171 167 172 167 157 147 144 149 186 200 176 169 183 209 220 210 200 207 215 219 223 224 205 206 204 193 198
193 196 192 190 214 245 249 195 230 190 177 198 189 200 166 164 185 179 176 176 184 177 173 168 168 188 207 194 184 196 220 214 201 202 213 221 223 226 215 202 201 207 205 209
288 257 155 224 265 276 306 337 344 320 237 218 189 176 162 178 192 189 187 189 194 192 186 184 174 188 222 218 207 211 211 196 191 203 217 222 218 225 227 215 204 208 213 217
245 238 186 255 271 320 323 320 309 329 338 335 325 202 195 185 200 206 207 208 208 212 213 197 193 206 226 228 229 224 205 184 188 202 211 221 225 222 231 230 221 220 226 219
223 197 201 237 238 223 259 278 293 308 307 293 290 287 249 206 209 213 218 221 216 213 213 211 213 218 230 227 230 228 203 183 180 198 210 212 212 221 230 234 260 258 246 247
Height
1521 1526 1530 1527 1525 1526 1529 1533 1536 1534 1529 1531 1534 1534 1532 1531 1532 1532 1533 1534 1535 1536 1537 1538 1540 1540 1542 1543 1544 1545 1545 1546 1547 1548 1548 1549 1549 1550 1551 1551 1551 1552 1552 1553
1527 1529 1522 1520 1521 1523 1528 1534 1537 1533 1529 1532 1536 1535 1532 1531 1530 1531 1532 1533 1534 1535 1536 1537 1538 1540 1541 1542 1543 1544 1545 1546 1547 1548 1548 1549 1549 1550 1550 1551 1551 1551 1552 1552
1527 1524 1519 1521 1524 1527 1529 1533 1534 1535 1532 1532 1537 1541 1535 1531 1530 1530 1530 1531 1533 1534 1535 1536 1537 1539 1540 1541 1542 1544 1545 1546 1547 1548 1548 1549 1549 1549 1550 1550 1550 1551 1551 1551
1524 1520 1520 1523 1524 1525 1533 1526 1528 1531 1539 1545 1541 1554 1540 1533 1531 1530 1530 1530 1531 1533 1534 1535 1536 1537 1539 1540 1542 1543 1544 1545 1546 1547 1547 1548 1548 1548 1549 1550 1550 1550 1551 1551
1525 1520 1521 1524 1522 1522 1526 1523 1526 1530 1536 1544 1543 1551 1545 1534 1534 1530 1528 1528 1530 1531 1532 1534 1535 1536 1537 1539 1541 1542 1543 1544 1545 1546 1547 1547 1548 1548 1549 1549 1550 1550 1550 1551
1521 1518 1518 1519 1518 1519 1521 1525 1530 1535 1542 1553 1544 1549 1546 1536 1530 1527 1526 1527 1528 1530 1531 1532 1534 1535 1537 1538 1540 1541 1542 1543 1545 1545 1546 1546 1547 1548 1548 1548 1549 1549 1549 1550
1527 1522 1518 1518 1522 1522 1524 1539 1553 1555 1559 1555 1539 1543 1540 1525 1522 1522 1523 1525 1527 1528 1530 1531 1533 1534 1536 1537 1538 1540 1541 1542 1543 1544 1545 1545 1546 1547 1547 1548 1548 1548 1549 1549
1537 1537 1522 1519 1521 1526 1527 1535 1552 1560 1561 1553 1540 1542 1533 1520 1519 1520 1522 1523 1525 1527 1529 1530 1532 1533 1534 1536 1537 1539 1540 1541 1542 1543 1544 1544 1545 1546 1546 1547 1547 1547 1548 1548
1535 1535 1520 1517 1517 1520 1527 1533 1534 1545 1548 1553 1547 1536 1527 1521 1521 1521 1522 1523 1524 1526 1527 1529 1531 1532 1533 1535 1536 1537 1539 1540 1541 1542 1542 1543 1544 1544 1545 1546 1546 1547 1547 1547
1524 1532 1524 1519 1518 1519 1522 1527 1538 1546 1554 1559 1549 1543 1539 1528 1525 1523 1523 1523 1524 1525 1526 1528 1529 1531 1532 1534 1535 1536 1537 1538 1539 1540 1541 1542 1543 1543 1544 1545 1545 1545 1546 1546
1521 1532 1530 1525 1524 1525 1524 1528 1534 1544 1547 1555 1558 1548 1523 1523 1521 1522 1522 1522 1523 1524 1525 1526 1528 1529 1531 1532 1534 1535 1536 1537 1538 1539 1540 1540 1541 1542 1543 1543 1544 1544 1545 1545
1523 1533 1538 1529 1520 1517 1520 1524 1532 1544 1545 1547 1552 1545 1517 1517 1518 1520 1521 1521 1522 1523 1524 1525 1526 1528 1529 1531 1532 1533 1535 1535 1536 1537 1538 1539 1540 1540 1541 1542 1542 1543 1543 1544
1522 1533 1544 1540 1533 1524 1522 1522 1525 1533 1541 1547 1551 1541 1517 1517 1518 1519 1520 1521 1521 1522 1523 1524 1525 1527 1528 1529 1531 1532 1533 1534 1535 1536 1536 1537 1538 1538 1539 1540 1540 1541 1542 1542
1520 1531 1540 1543 1537 1529 1527 1523 1523 1531 1542 1543 1539 1532 1522 1519 1518 1519 1519 1519 1520 1521 1522 1523 1524 1525 1527 1528 1529 1530 1531 1532 1533 1534 1535 1535 1536 1536 1537 1538 1539 1539 1540 1540
1521 1530 1529 1528 1524 1523 1524 1522 1521 1525 1529 1534 1529 1525 1519 1516 1516 1516 1517 1518 1519 1520 1521 1522 1523 1524 1525 1526 1527 1529 1530 1531 1531 1532 1533 1533 1534 1535 1535 1536 1536 1537 1537 1538
1522 1527 1527 1528 1522 1522 1522 1519 1518 1518 1520 1522 1521 1520 1512 1512 1513 1514 1516 1517 1517 1518 1519 1520 1521 1522 1523 1524 1525 1526 1528 1528 1529 1530 1530 1531 1532 1532 1533 1533 1534 1534 1535 1536
1524 1528 1532 1535 1526 1524 1528 1518 1515 1515 1514 1515 1519 1516 1511 1512 1512 1512 1513 1514 1515 1516 1517 1518 1519 1520 1521 1522 1523 1524 1525 1526 1527 1528 1528 1529 1529 1529 1530 1531 1531 1532 1532 1533
1522 1528 1534 1536 1531 1536 1524 1510 1509 1511 1512 1511 1510 1510 1510 1510 1510 1511 1511 1512 1513 1514 1515 1516 1517 1518 1519 1520 1521 1522 1523 1524 1525 1525 1526 1526 1526 1527 1527 1528 1528 1529 1530 1530
1515 1523 1533 1538 1537 1531 1518 1511 1510 1512 1514 1510 1510 1509 1509 1510 1510 1511 1511 1511 1511 1512 1513 1514 1515 1516 1517 1518 1519 1520 1520 1521 1522 1522 1523 1523 1524 1524 1524 1525 1525 1526 1527 1527
1514 1519 1529 1535 1535 1535 1520 1508 1506 1510 1517 1510 1508 1508 1508 1509 1514 1512 1510 1510 1511 1511 1512 1512 1513 1514 1515 1516 1517 1517 1518 1518 1519 1519 1520 1520 1521 1521 1521 1522 1522 1523 1523 1524
1521 1524 1530 1533 1534 1526 1512 1507 1507 1520 1518 1508 1507 1506 1507 1508 1508 1508 1508 1508 1509 1509 1510 1510 1511 1512 1512 1513 1514 1515 1515 1515 1516 1517 1517 1517 1517 1518 1518 1518 1519 1519 1520 1520
1522 1526 1528 1531 1534 1528 1507 1507 1511 1511 1506 1506 1505 1505 1505 1505 1505 1505 1505 1505 1505 1506 1507 1508 1509 1509 1510 1511 1512 1512 1512 1512 1513 1513 1513 1513 1514 1514 1514 1514 1515 1515 1516 1516
1518 1518 1519 1521 1520 1509 1506 1506 1506 1505 1504 1504 1504 1503 1503 1503 1503 1503 1502 1503 1503 1504 1505 1506 1506 1507 1507 1508 1509 1508 1508 1509 1509 1509 1509 1509 1510 1510 1510 1510 1510 1511 1511 1511
1513 1510 1512 1513 1510 1506 1505 1505 1504 1504 1503 1503 1502 1502 1501 1501 1501 1500 1501 1501 1501 1501 1502 1503 1503 1503 1504 1504 1505 1505 1505 1505 1505 1505 1505 1505 1505 1505 1506 1506 1506 1506 1506 1506
1512 1510 1511 1511 1507 1505 1504 1503 1503 1502 1501 1501 1500 1500 1499 1498 1498 1498 1498 1498 1498 1498 1499 1499 1500 1500 1500 1500 1500 1501 1501 1501 1501 1501 1501 1501 1501 1501 1501 1501 1501 1501 1501 1501
1507 1508 1510 1509 1504 1505 1503 1502 1501 1500 1498 1498 1497 1496 1496 1495 1495 1494 1494 1494 1495 1495 1495 1496 1496 1496 1496 1496 1496 1496 1497 1497 1497 1497 1497 1497 1497 1497 1497 1496 1496 1496 1497 1497